Tracking 28790 objects as of 19-Apr-2024
HD Live streaming from Space Station
objects crossing your sky now

BREEZE-M R/B

Track BREEZE-M R/B now!


NORAD ID: 28869
Int'l Code: 2005-036B
Perigee: 3,182.6 km
Apogee: 35,472.0 km
Inclination: 10.5 °
Period: 683.3 minutes
Semi major axis: 25698 km
RCS: 6.7821 m2 (large)
Launch date: September 8, 2005
Source: Commonwealth of Independent States (former USSR) (CIS)
Launch site: TYURATAM MISSILE AND SPACE COMPLEX (TTMTR)

Note: This is a ROCKET BODY
Your satellite tracking list
Your tracking list is empty




NASA's NSSDC Master Catalog

Two Line Element Set (TLE):
1 28869U 05036B   24108.72568869 -.00000332  00000-0  00000-0 0  9992
2 28869  10.5320 342.8775 6282400 240.8040  42.8201  2.10739950143227
Source of the keplerian elements: AFSPC